Wind_Speed
41 42 43 43 43 44 45 46 47 48 48 46 42 39 37 36 35 36 37 39 43 46 49 52 54 55 57 56 52 46 38 27 23 27 32 36 39 38 35 34 33 35 38 40 40 39 38 37 37 37 35 34 34 32 31 29 27 27 28 28 30 33 36 39 41 41 40 41 42 39 38 38 36 34 33 31 29 28 27 25 24 24 24 23 23
41 43 44 44 45 46 47 46 45 41 38 35 32 32 32 33 34 35 35 36 39 42 46 49 51 53 52 48 41 36 30 24 24 29 34 37 39 38 36 34 34 36 39 42 42 41 40 39 39 39 38 36 34 33 32 30 27 26 28 30 30 32 35 39 42 43 42 41 43 41 39 39 38 37 36 33 31 29 27 26 25 25 24 24 24
41 43 44 46 46 44 42 38 34 30 28 27 28 29 31 34 36 35 33 33 35 39 41 42 42 42 40 36 34 31 28 25 27 31 34 36 37 36 35 35 35 37 40 43 44 43 41 40 40 39 39 36 33 32 31 29 27 26 28 31 32 34 36 39 42 44 43 42 43 43 40 40 40 39 38 35 32 31 29 27 26 26 25 25 25
41 43 43 44 43 39 34 29 25 24 24 25 27 29 33 35 36 34 31 32 37 39 38 36 34 33 33 32 31 29 29 29 29 32 35 37 37 36 37 37 36 38 41 44 45 44 42 42 42 40 39 35 32 32 30 28 28 28 28 31 33 35 38 41 43 45 44 42 44 45 41 39 40 40 40 37 34 33 31 29 28 27 26 26 26
40 41 40 38 37 36 32 26 23 23 24 27 30 32 34 36 35 32 32 36 40 38 33 29 28 27 28 28 27 28 30 32 32 33 35 37 38 38 39 38 37 37 41 44 45 45 44 44 43 41 39 34 32 31 29 28 29 30 30 31 34 36 38 42 45 46 45 43 45 46 42 40 39 40 41 38 36 34 33 31 29 29 28 27 28
37 37 37 34 33 33 32 28 26 25 26 29 32 34 34 36 36 34 35 39 39 35 30 26 25 24 25 26 27 30 32 33 33 34 36 37 38 39 39 38 37 38 40 43 44 45 45 45 43 41 38 34 31 30 30 30 30 31 31 32 34 36 38 41 45 47 47 46 47 46 43 41 39 39 40 39 37 36 34 32 31 30 29 29 30
34 34 34 33 32 33 32 30 28 27 28 30 33 33 31 31 36 39 39 39 36 33 30 27 25 24 26 27 28 32 35 36 36 36 37 38 39 40 39 39 39 39 40 43 44 45 45 45 43 41 37 33 31 31 32 32 31 31 32 33 34 35 37 41 45 49 49 48 49 47 43 41 38 37 39 40 38 36 35 35 33 32 31 31 31
32 32 32 33 34 34 33 31 31 29 29 31 33 34 32 29 35 39 37 35 34 32 30 28 27 26 27 29 30 32 34 36 38 39 40 41 42 41 39 39 40 41 42 44 45 45 45 44 42 39 34 32 32 33 33 33 32 31 31 33 34 34 36 40 46 50 50 49 49 46 42 40 39 37 37 37 38 38 38 37 35 34 33 33 33
30 31 32 34 35 35 34 33 33 32 32 34 35 37 36 33 34 36 36 35 34 32 29 28 28 27 28 30 31 33 35 37 39 39 39 41 43 44 43 41 41 43 44 45 45 45 44 43 40 36 34 34 35 34 32 32 32 30 30 32 33 33 35 39 45 50 51 51 49 45 42 41 41 39 37 37 39 41 40 38 37 36 35 34 34
30 32 33 33 34 34 34 34 34 34 35 37 40 41 40 37 33 32 36 36 35 33 30 29 29 28 29 31 32 34 38 41 43 41 38 39 41 43 45 45 45 45 46 46 46 44 43 40 36 34 36 37 36 33 30 30 31 30 31 32 32 32 34 39 45 50 51 51 49 45 43 42 41 41 40 39 41 42 41 39 38 37 36 35 36
31 32 33 33 32 32 33 35 36 37 39 41 45 44 42 40 32 30 36 38 36 34 32 31 31 30 32 33 34 34 36 40 42 40 39 38 36 36 38 41 42 43 45 47 47 44 41 37 34 35 37 37 35 31 29 31 31 31 31 32 32 32 34 39 45 50 51 50 48 45 43 42 42 42 42 41 42 42 41 40 39 38 37 36 37
33 32 32 32 32 32 33 35 37 40 43 46 48 46 42 41 35 32 36 37 35 33 32 33 32 33 35 36 37 37 37 38 39 37 36 34 31 31 32 34 35 36 39 42 43 41 38 37 36 36 37 37 34 30 30 31 31 30 30 31 31 32 34 39 46 50 51 50 48 45 44 43 43 43 42 41 42 42 41 40 39 39 38 37 37
33 32 31 31 32 33 35 37 41 44 46 48 47 44 42 41 37 36 36 36 34 32 32 32 32 33 34 36 37 39 40 39 39 37 34 32 32 33 34 35 35 36 38 39 39 39 39 38 38 37 38 37 33 30 30 31 30 30 30 29 30 31 33 40 48 51 51 50 47 45 44 44 43 41 40 40 42 43 42 41 40 39 39 38 37
33 32 32 34 35 37 39 42 44 46 48 48 45 42 42 40 37 36 36 36 34 33 31 30 30 30 30 31 33 35 37 38 39 38 35 33 35 37 39 38 39 41 43 42 42 42 41 39 38 38 38 35 31 29 29 29 29 29 29 28 28 30 33 40 47 51 51 49 46 44 43 42 41 39 39 40 41 42 41 40 39 39 39 38 38
34 36 37 39 40 42 43 45 46 48 50 48 44 42 41 39 38 36 35 35 34 33 32 30 29 28 28 28 27 29 32 36 40 40 37 35 37 40 43 43 43 44 46 46 45 43 42 39 37 36 36 35 31 28 28 28 27 28 28 27 27 29 32 38 44 48 50 48 45 45 43 40 39 39 39 40 40 40 39 37 37 37 37 37 36
40 41 42 43 44 45 46 47 49 50 50 47 44 41 40 39 38 36 35 35 34 34 32 30 28 27 26 26 25 25 27 33 39 42 41 39 39 41 44 45 45 45 46 47 45 42 40 39 38 37 36 35 31 28 28 28 27 27 27 27 27 29 32 35 40 45 49 49 48 48 47 44 42 41 40 40 39 38 37 35 35 35 34 33 32
45 45 45 45 46 46 47 48 50 49 47 45 42 40 39 39 39 37 36 35 35 34 32 30 28 26 26 26 25 23 23 26 32 38 41 43 44 43 43 43 43 43 44 44 43 41 39 39 39 38 36 35 33 30 29 28 27 27 27 27 28 30 32 35 38 41 45 49 50 50 49 47 45 43 41 39 38 38 38 35 33 32 32 31 30
47 47 46 46 46 46 47 48 48 47 45 43 41 40 40 40 39 38 36 35 35 35 35 32 30 27 26 26 25 23 23 23 24 27 32 39 43 44 44 44 43 44 44 44 44 42 41 41 41 39 36 35 33 31 30 28 27 27 27 28 29 30 33 36 38 40 43 46 50 51 50 49 47 44 42 40 38 39 39 37 34 32 30 30 31
48 47 47 46 46 46 47 47 47 45 44 41 40 40 40 39 39 38 37 36 36 36 36 35 31 28 27 26 25 23 23 23 23 23 25 30 35 39 42 44 44 45 46 45 45 44 44 44 44 41 37 35 33 32 31 29 28 27 27 28 29 30 32 36 40 42 43 44 46 49 51 51 48 44 43 42 40 40 40 39 37 35 32 31 32
48 47 46 46 47 47 47 47 46 45 42 41 40 40 40 40 40 39 38 37 37 37 37 35 32 29 27 26 25 23 22 22 23 23 24 26 29 33 36 38 40 41 42 43 42 42 43 43 43 40 36 35 34 34 33 31 29 29 30 29 30 31 33 36 41 44 43 43 44 45 48 50 49 45 44 43 42 41 42 41 40 39 38 35 32
48 47 46 47 47 47 46 45 44 43 42 41 40 40 40 41 41 40 39 38 38 37 36 33 30 28 27 26 25 24 22 22 22 23 23 25 28 31 34 36 37 38 39 40 40 39 39 39 39 37 36 36 36 36 35 33 32 32 33 32 31 32 34 36 41 45 46 44 44 43 44 47 48 46 44 44 44 44 43 43 43 42 42 41 37
47 46 45 45 44 44 43 43 43 43 42 41 41 41 42 41 41 40 39 39 38 37 35 32 28 27 26 26 25 24 23 22 21 22 23 25 28 30 32 34 36 38 39 40 39 38 36 34 36 37 37 37 37 37 37 35 33 34 35 34 32 32 34 36 40 45 47 47 45 44 43 44 46 47 45 44 45 46 46 46 46 45 43 43 41
47 46 45 44 43 43 44 44 44 43 42 42 42 44 43 41 40 40 40 39 38 37 35 32 28 26 25 25 25 25 24 23 22 22 22 24 26 28 30 32 33 35 38 40 40 37 34 32 33 36 38 38 39 38 38 37 35 36 36 36 34 32 33 35 38 42 47 48 48 46 45 45 45 46 46 45 46 46 46 48 48 47 46 45 44
50 49 48 47 47 47 46 46 45 44 44 44 45 45 42 40 40 40 40 39 38 37 35 33 29 26 25 24 25 25 26 25 24 23 23 24 24 26 28 29 30 32 34 39 40 38 36 33 32 33 36 37 38 38 38 38 37 37 37 37 35 34 34 35 38 41 44 46 48 47 48 48 47 47 47 47 48 48 47 48 47 47 49 50 49
56 55 54 53 52 50 49 48 48 48 48 48 47 44 41 39 39 39 39 39 38 37 35 34 31 28 25 22 22 25 27 28 27 26 25 25 26 25 25 27 28 30 32 35 39 40 39 37 34 33 33 34 35 36 37 38 38 38 38 38 36 35 35 36 38 40 42 43 45 45 46 48 49 49 49 49 49 49 49 49 48 48 50 52 51
59 58 57 55 53 51 50 50 51 51 50 49 47 44 41 39 38 38 38 38 38 37 36 35 33 30 27 22 20 23 26 29 30 31 29 28 28 27 26 26 27 28 30 33 37 40 41 41 39 37 35 34 33 34 35 36 37 38 38 38 37 36 36 37 38 40 42 43 43 43 44 46 48 49 50 50 50 50 51 51 51 51 51 51 51
59 58 56 54 53 53 53 52 51 50 50 50 48 44 41 40 39 39 39 38 38 37 36 35 34 32 29 25 24 26 27 28 30 32 33 33 32 30 29 28 27 27 28 31 34 37 40 43 44 43 42 39 37 36 34 34 35 36 37 38 39 38 37 37 38 39 42 44 43 43 43 44 46 48 50 51 50 49 51 52 53 53 53 53 53
59 57 56 55 54 54 52 51 51 51 51 50 47 44 42 41 41 40 40 40 39 38 37 36 36 35 34 33 33 34 32 31 31 32 34 35 35 34 32 31 30 29 28 29 31 33 36 40 44 47 47 46 44 42 39 37 35 36 37 39 40 40 39 39 38 38 41 44 45 44 43 43 44 47 49 50 50 48 49 51 53 53 53 53 53
58 57 56 55 54 53 52 52 53 53 51 48 45 44 42 41 41 41 42 42 41 40 38 37 36 36 37 38 39 39 36 34 33 33 34 35 37 37 36 35 33 32 30 30 30 31 33 35 39 44 47 48 48 47 46 43 40 38 38 39 40 42 41 41 40 39 40 42 45 45 44 44 44 46 48 49 49 48 48 49 52 53 53 52 53
59 58 58 57 56 55 55 56 54 51 48 46 45 44 43 42 42 42 42 42 42 41 40 40 40 40 40 40 41 40 38 36 34 34 35 36 37 38 38 37 36 35 34 32 31 31 32 33 35 38 42 46 48 48 48 47 45 42 40 40 41 42 43 43 42 42 42 42 44 46 46 45 45 46 48 49 50 50 50 49 51 53 54 53 53
61 60 59 58 58 56 54 53 51 49 47 47 46 46 45 45 44 44 43 43 43 43 43 43 43 43 42 41 40 39 38 37 37 37 36 36 38 39 40 40 39 38 37 35 34 33 32 33 33 35 38 41 45 47 48 48 47 46 44 43 43 43 44 45 45 45 44 44 44 46 47 47 47 47 48 49 51 52 52 52 52 53 55 56 57
60 59 59 59 58 55 52 50 49 49 49 49 49 48 47 47 46 46 46 45 45 45 45 44 44 43 42 41 40 39 39 40 40 39 38 37 37 39 41 41 41 41 40 38 37 36 35 34 34 35 36 38 41 44 47 49 49 48 47 47 46 45 45 46 47 47 47 47 47 46 47 47 48 48 48 49 50 52 54 55 55 55 56 57 59
57 57 57 58 58 57 56 54 52 52 52 52 51 50 49 49 49 49 48 48 48 47 46 45 44 44 43 42 42 42 43 43 42 40 38 37 37 39 41 42 42 42 42 41 40 40 39 37 36 36 36 37 38 41 44 48 50 50 50 49 49 48 48 48 49 49 49 49 49 49 49 49 48 48 48 48 49 51 53 55 57 57 57 58 59
58 59 59 59 59 58 58 57 55 54 53 53 51 50 50 50 50 50 50 49 48 47 46 45 45 44 44 43 44 45 45 45 43 40 39 38 37 38 40 42 43 43 43 44 43 43 42 41 40 39 38 38 39 40 42 45 48 50 52 52 51 50 50 50 51 51 51 51 52 52 52 52 52 52 51 50 50 51 53 55 57 58 59 60 61
55 56 57 57 56 54 53 53 52 49 49 49 48 49 50 51 52 51 51 50 49 47 46 45 45 44 45 45 46 46 46 44 42 40 39 38 37 38 39 42 44 45 44 44 44 45 45 45 44 43 42 41 41 41 42 43 45 48 50 52 53 53 53 52 52 53 54 54 54 54 54 55 56 56 56 55 54 53 53 55 57 59 60 61 63
54 54 55 56 55 54 53 52 51 50 48 48 48 50 52 54 55 55 54 53 52 50 49 48 47 48 49 49 49 48 46 44 41 40 39 39 38 38 39 40 43 45 46 46 46 46 46 47 47 46 46 45 44 44 43 44 45 46 48 50 52 54 55 55 54 54 54 55 56 56 56 56 57 58 59 59 57 56 55 56 58 59 60 62 63
60 61 61 62 62 61 60 58 57 55 54 54 55 55 57 58 58 58 57 56 55 54 53 52 53 54 54 53 51 49 47 44 41 40 40 40 40 40 41 42 43 44 47 48 49 49 48 49 49 49 49 49 48 48 47 46 47 47 48 49 51 52 54 56 57 57 57 57 57 58 58 58 58 59 59 60 59 59 58 58 59 59 60 62 63
63 64 64 65 65 64 63 61 59 58 57 58 59 59 60 61 61 61 60 59 57 56 56 56 57 56 54 53 51 48 47 45 43 42 41 42 42 43 44 45 46 46 47 48 50 50 51 51 51 52 52 52 52 52 51 50 50 50 50 50 51 52 53 55 56 58 59 60 60 60 60 60 61 61 61 61 61 61 61 61 61 61 61 62 63
64 65 65 66 66 65 63 61 60 59 59 60 61 62 64 65 64 65 64 62 59 56 57 57 56 53 51 49 48 47 46 45 44 43 42 43 44 45 45 46 47 48 48 49 50 51 52 52 52 54 55 56 56 55 55 54 54 53 53 53 53 53 54 55 56 57 59 61 62 63 63 64 64 64 64 64 64 64 64 64 64 64 63 63 64
64 65 66 66 67 66 65 64 63 63 63 64 66 67 68 69 68 66 65 62 56 53 53 53 50 48 47 46 46 45 45 44 44 43 43 44 44 43 43 44 45 46 47 48 49 51 52 53 53 55 57 58 59 58 58 58 58 57 57 56 56 56 56 56 57 58 59 60 62 63 64 65 66 67 68 68 69 69 68 68 68 67 67 66 65
63 63 63 64 66 67 66 65 64 64 64 66 67 67 67 68 68 65 63 60 55 50 47 47 46 45 45 44 44 44 44 43 43 43 43 43 43 42 42 43 45 46 46 47 47 48 49 50 52 54 57 60 61 61 61 61 60 60 60 60 60 60 60 59 60 60 61 61 62 63 63 64 65 67 68 70 71 72 72 72 72 71 70 70 69
62 63 63 64 65 65 64 63 62 61 61 62 63 63 63 65 65 64 62 60 57 52 48 44 43 43 43 43 44 45 45 44 44 44 43 44 44 44 44 45 46 47 48 47 47 46 45 46 48 51 55 59 61 62 63 63 63 63 63 63 63 63 64 64 64 63 63 64 64 64 64 64 64 65 67 68 70 71 73 74 74 74 74 73 73
59 59 60 62 63 63 62 61 60 59 59 60 60 59 60 61 61 61 60 60 60 58 55 49 44 42 43 45 45 46 46 47 46 46 45 46 47 47 47 47 48 49 49 49 49 48 47 47 48 49 53 56 58 59 61 63 65 65 65 65 66 66 67 67 68 67 67 67 67 68 67 66 66 66 67 67 68 69 71 72 73 74 75 76 76
55 56 55 56 58 60 60 61 62 61 60 59 58 57 57 58 58 59 59 59 59 61 61 58 52 46 45 46 47 47 47 48 48 48 47 47 48 49 49 49 49 50 50 51 52 52 52 51 51 51 54 56 56 56 58 60 63 65 66 67 68 68 69 70 71 71 71 70 70 71 72 71 69 69 70 69 69 69 70 71 71 72 74 75 77
60 60 60 59 59 60 60 60 61 62 60 58 56 56 56 56 57 57 58 59 60 61 63 64 62 57 51 49 48 48 48 49 49 50 49 49 49 50 51 51 50 51 51 52 53 54 54 54 53 52 54 57 57 57 57 58 60 62 64 66 68 69 70 71 72 73 74 74 74 74 75 75 74 73 74 73 72 72 72 72 72 72 73 74 75
67 66 66 66 66 65 64 63 63 62 62 60 58 57 56 56 57 57 58 59 60 61 63 64 66 65 62 57 53 51 50 51 51 52 52 51 51 52 52 53 52 53 53 53 53 54 54 54 53 53 54 57 58 59 58 59 60 61 63 65 67 68 70 71 73 74 75 76 76 76 78 79 78 76 77 78 77 76 76 76 75 74 74 74 75
69 69 69 70 70 69 68 68 67 66 64 63 61 59 58 58 58 59 59 60 61 62 63 64 65 67 68 66 63 59 55 54 53 53 53 53 53 54 54 55 55 55 55 55 55 54 54 55 55 56 56 58 59 60 60 60 62 62 63 65 67 68 70 71 73 75 76 77 78 79 79 81 81 80 79 81 81 80 80 80 79 78 78 77 77
68 70 71 72 72 72 71 70 69 68 67 66 64 61 60 60 60 60 61 62 63 64 64 65 66 67 68 70 70 68 65 61 58 56 56 56 56 56 57 57 58 57 57 56 56 56 56 57 58 59 59 60 61 61 61 62 63 64 65 66 68 69 71 72 74 76 77 79 80 81 81 82 83 83 83 83 84 83 83 83 82 81 81 81 80
68 70 72 74 74 74 73 72 70 70 70 68 66 64 64 63 63 63 63 64 64 66 67 68 69 70 71 72 72 72 71 69 66 64 62 61 60 60 59 60 60 59 59 58 58 58 59 60 61 62 62 63 63 64 64 65 66 67 68 69 70 72 73 74 75 77 79 81 82 83 83 82 84 85 85 86 86 87 87 86 85 84 84 84 83
68 70 74 77 76 73 72 72 72 72 72 71 69 68 67 67 66 66 66 67 67 68 69 70 71 72 73 73 73 73 72 72 72 71 70 68 67 65 64 63 63 62 62 62 62 63 64 65 65 66 66 66 66 67 67 68 69 71 72 73 75 75 76 76 77 79 81 83 85 86 85 83 83 86 87 88 88 89 89 89 88 87 86 86 86
70 72 76 79 78 73 72 74 74 73 73 73 73 72 71 70 69 69 70 70 70 71 72 72 73 73 73 74 74 73 73 73 72 72 72 72 71 69 68 67 66 66 66 66 66 67 68 68 69 69 70 70 70 70 71 71 72 73 74 75 76 77 78 79 79 80 81 83 86 89 88 86 85 86 87 87 88 89 91 92 91 91 90 89 89
Wind_Direction
276 277 277 278 279 281 284 287 290 291 292 292 292 292 292 293 292 289 284 279 273 269 268 268 269 270 272 275 276 275 271 259 245 249 251 249 246 243 247 253 256 257 255 252 252 252 254 262 268 272 279 278 270 268 271 271 264 257 255 254 252 248 244 240 238 236 236 239 240 236 232 232 236 238 242 245 246 248 249 248 247 248 248 246 246
273 274 277 278 280 283 287 292 293 292 292 293 296 298 299 299 297 293 290 288 283 276 274 274 272 272 273 274 274 270 263 249 246 253 252 248 245 244 249 252 255 257 255 251 251 253 255 263 269 271 279 279 269 267 269 268 261 257 255 254 254 250 245 241 238 237 236 240 241 238 233 232 234 238 242 244 244 244 245 245 244 245 247 247 247
272 274 276 278 281 286 293 297 295 293 295 300 304 307 307 306 303 297 294 293 290 285 283 281 277 274 273 272 271 267 258 247 246 251 250 247 244 245 250 251 254 255 254 251 250 253 256 263 268 272 280 277 267 266 267 266 261 257 255 252 253 250 245 240 237 236 235 239 241 240 236 233 234 237 241 243 244 243 243 243 242 244 246 247 247
272 273 276 281 286 293 300 298 294 299 302 306 311 312 312 310 307 301 296 296 296 293 288 285 281 277 275 272 270 264 253 248 245 244 245 244 244 248 251 251 251 253 254 251 250 253 256 263 266 272 280 272 264 265 265 267 264 259 256 253 250 248 245 240 236 234 234 237 241 240 237 235 236 237 240 242 244 244 243 243 242 243 245 246 245
274 275 279 287 295 301 303 296 295 303 305 309 313 314 312 309 306 302 297 298 300 297 293 288 281 277 274 271 269 263 254 249 245 242 243 244 248 251 252 251 251 253 254 251 252 254 257 262 265 272 276 266 262 265 264 268 267 261 257 255 252 248 245 240 236 233 233 234 239 241 239 237 238 238 240 242 244 245 244 245 244 244 244 243 242
281 283 285 291 298 302 301 295 296 300 303 311 317 317 316 312 306 302 299 299 299 298 298 293 283 275 273 268 263 261 259 255 252 248 247 247 250 251 252 253 253 253 252 252 253 254 258 261 265 273 271 260 263 267 266 270 270 264 256 255 255 250 245 241 237 233 231 233 238 242 240 237 239 240 240 241 243 245 246 246 246 245 243 241 241
287 291 291 294 299 300 298 295 294 295 302 316 323 322 319 312 305 303 300 299 298 297 298 295 287 277 272 268 261 257 257 257 257 256 254 252 251 251 254 256 256 253 252 252 254 256 259 262 268 274 266 259 267 269 270 271 271 267 256 255 257 253 245 240 237 233 231 233 237 241 241 238 239 241 242 242 243 246 247 247 246 245 243 241 241
287 291 293 294 297 299 298 296 293 292 302 317 324 324 321 311 303 300 298 298 298 296 294 292 289 280 271 267 263 260 258 256 255 255 255 255 255 255 255 256 257 257 255 254 256 258 260 263 271 273 265 264 269 270 271 272 272 267 258 256 257 254 245 237 236 234 232 233 236 239 239 237 238 240 242 243 244 246 246 246 246 246 245 244 244
285 287 289 292 295 297 297 296 294 292 299 311 318 322 324 318 307 299 295 297 298 295 292 290 288 282 273 267 264 262 262 262 261 259 256 255 256 256 254 253 256 258 257 256 256 257 261 266 272 273 268 268 270 271 271 271 271 266 259 258 257 253 243 234 234 234 233 234 235 236 235 235 236 237 240 241 243 244 244 245 246 247 247 246 246
282 284 286 290 293 295 295 296 295 293 297 305 311 315 321 322 314 300 295 299 300 295 291 290 288 282 273 267 265 263 262 263 266 268 267 263 260 257 254 252 254 255 254 255 255 257 263 267 270 273 270 268 269 271 269 270 271 266 260 259 256 250 240 231 230 232 234 236 237 235 233 234 236 237 237 238 240 242 243 245 246 246 247 248 248
281 284 286 288 290 291 293 295 295 295 296 303 308 310 315 321 317 299 294 300 301 296 293 294 292 287 279 271 267 266 263 262 265 269 270 268 263 258 255 254 254 253 252 253 256 259 263 264 267 270 268 268 270 269 267 271 272 266 262 259 256 248 237 229 228 231 234 237 238 236 234 233 235 237 238 239 241 242 243 244 245 245 246 248 249
280 282 284 284 286 287 289 292 294 295 298 303 308 308 312 318 315 302 298 300 298 293 293 296 294 290 285 279 273 269 266 263 265 268 268 266 263 260 259 258 258 258 256 255 256 259 260 261 264 265 265 269 270 267 266 270 271 266 262 260 257 248 236 228 227 229 233 237 239 238 236 234 235 237 240 241 242 242 242 243 244 244 245 248 249
279 279 279 279 281 284 286 290 293 296 300 304 307 307 312 316 313 307 305 302 297 293 292 293 293 290 286 282 276 271 267 263 262 263 264 263 261 259 258 257 257 257 257 256 256 258 259 260 262 263 266 269 267 264 266 269 268 265 263 262 257 249 237 229 227 228 230 234 238 238 236 235 236 238 241 243 243 241 241 243 244 244 244 247 249
274 275 276 278 281 284 287 291 294 296 300 303 305 308 313 315 313 309 306 303 299 296 292 290 290 290 287 282 277 272 267 262 259 258 258 257 255 255 255 255 253 254 255 256 256 258 260 261 261 263 268 270 267 265 266 267 266 266 266 264 256 248 238 231 229 229 229 232 235 236 234 235 237 239 242 244 244 242 241 244 246 245 245 247 250
271 274 278 281 284 287 289 292 294 297 300 302 305 310 313 314 313 309 304 301 299 297 294 292 291 290 289 286 281 275 267 260 256 255 254 252 251 251 253 253 252 253 256 257 257 258 260 260 259 261 268 270 268 267 267 266 265 267 268 264 255 246 240 234 232 232 230 231 233 233 233 234 236 238 241 244 244 243 243 247 249 247 247 248 249
273 277 281 284 286 288 291 293 295 298 300 303 307 311 312 312 311 308 304 301 299 299 297 295 294 295 295 293 287 279 269 259 254 253 252 250 249 249 251 253 253 253 256 258 259 259 259 257 257 260 266 267 267 266 266 264 264 268 268 263 254 246 241 236 234 234 232 230 231 232 232 233 233 235 238 242 244 244 245 248 248 246 245 244 245
275 279 282 285 287 290 292 294 297 299 301 304 307 309 311 310 309 305 302 300 299 300 298 296 295 297 299 297 293 286 275 265 257 254 252 249 248 248 248 250 252 253 254 256 259 259 257 256 258 261 262 262 264 265 263 262 262 266 266 262 254 246 240 236 234 235 235 233 232 232 234 235 235 236 238 240 242 243 243 243 240 237 237 239 242
278 281 284 287 289 291 293 296 297 298 301 303 305 308 309 309 307 303 300 298 299 299 298 295 293 294 298 298 297 293 286 278 269 261 255 250 247 246 245 245 247 250 253 254 256 256 255 256 259 261 260 258 261 262 262 261 261 263 263 260 255 247 240 234 232 234 237 238 236 234 235 237 238 239 239 239 240 241 241 239 237 232 233 240 243
282 284 286 288 290 292 294 295 295 296 299 301 304 307 308 307 304 301 298 296 297 298 298 295 291 290 294 297 298 297 292 286 279 271 263 256 251 248 246 246 247 249 252 255 255 254 254 256 259 260 257 254 257 259 260 260 261 262 261 258 253 248 242 234 229 232 237 240 240 238 237 237 239 240 240 239 238 240 239 238 238 233 233 240 244
283 285 287 289 291 292 291 291 292 293 297 300 303 306 306 305 302 298 296 295 296 297 297 294 291 289 291 294 296 297 294 288 283 277 269 263 258 252 249 250 251 251 253 254 255 255 255 256 258 255 251 250 252 254 256 257 260 261 260 257 251 245 243 237 230 229 235 240 241 241 239 238 239 240 241 241 238 238 238 238 239 236 234 236 241
282 284 286 287 288 289 288 288 290 293 296 299 302 303 303 302 299 296 293 293 294 296 296 293 291 290 290 291 293 296 297 293 287 280 272 265 261 255 249 248 250 253 256 256 256 255 255 254 251 248 246 246 248 250 252 253 255 256 256 255 252 245 242 239 233 229 232 236 240 241 241 240 239 240 241 241 240 240 239 239 239 239 236 235 236
280 281 282 283 284 285 286 289 291 294 296 298 300 301 301 299 295 292 291 291 292 294 294 292 291 292 291 290 291 294 296 295 290 283 275 268 264 261 256 250 248 250 253 257 257 255 254 251 246 243 243 243 245 248 250 251 250 250 250 251 251 249 244 240 237 233 232 235 238 240 241 240 239 240 240 240 241 242 243 242 241 241 240 238 238
277 278 279 280 281 283 286 288 290 293 294 296 298 299 298 296 292 289 288 288 289 291 291 289 289 292 292 290 289 290 292 292 290 286 281 274 268 265 263 259 254 250 249 251 256 257 255 251 244 240 239 241 243 246 248 249 248 248 247 247 247 248 246 243 240 237 235 236 238 240 241 241 240 239 240 239 241 243 245 245 244 243 241 241 242
277 278 279 280 281 283 284 286 288 290 291 293 295 296 295 292 290 287 286 286 287 288 287 284 284 289 291 290 289 288 288 288 287 285 282 279 275 270 267 265 262 257 249 246 249 254 256 254 248 242 240 241 242 244 245 245 245 246 246 245 244 244 245 245 243 241 239 238 239 241 242 243 241 239 239 239 239 241 243 244 244 242 242 243 243
276 277 278 279 280 281 282 283 285 286 288 291 292 292 292 290 288 286 285 285 286 285 284 280 280 284 286 288 290 290 288 287 285 283 281 278 278 277 274 270 266 262 257 249 245 247 251 253 253 249 245 244 243 242 242 242 243 244 244 243 243 243 244 245 245 244 243 242 241 241 242 242 242 240 238 238 239 240 242 243 243 242 243 245 245
275 276 277 278 278 279 280 281 283 284 286 289 290 290 290 288 287 285 284 285 284 284 281 277 275 278 279 281 289 293 291 289 285 283 281 277 276 275 275 274 269 265 261 256 250 246 246 248 252 253 252 250 246 244 242 241 242 243 243 243 242 242 243 245 246 245 243 243 243 243 242 241 240 239 238 238 238 239 241 242 243 243 245 248 249
274 275 275 276 276 277 278 279 280 282 285 287 288 288 287 286 285 283 283 283 282 280 278 274 272 272 271 273 285 292 291 289 287 282 279 276 274 272 271 271 270 267 263 260 256 252 248 248 249 252 254 254 252 251 248 245 244 244 244 244 243 243 243 243 246 245 243 242 244 245 244 241 239 237 237 238 238 239 240 241 242 244 246 250 251
272 272 272 273 274 275 276 277 279 283 285 286 285 285 285 284 283 281 280 280 279 277 275 272 269 268 266 269 280 288 288 287 287 284 279 274 272 270 269 268 266 266 265 262 260 257 253 251 250 251 253 254 254 255 255 253 250 248 246 246 246 245 244 242 244 245 243 242 243 244 245 243 240 237 237 238 239 239 240 240 241 243 245 248 250
271 271 271 272 272 273 274 276 280 283 283 282 281 282 283 283 281 280 278 277 276 275 272 269 267 266 267 269 276 283 285 284 285 286 282 275 270 268 268 267 265 264 263 262 262 260 258 254 252 251 252 253 254 254 255 255 254 251 247 247 247 247 246 244 244 244 243 242 242 243 244 244 242 239 238 238 239 240 240 240 240 240 241 243 246
273 272 272 272 272 273 274 277 279 280 279 278 279 281 282 281 280 278 276 275 274 271 269 267 266 266 268 271 276 280 282 283 285 287 284 278 271 267 265 264 264 263 261 260 260 261 260 258 255 253 251 251 252 252 252 252 253 252 249 247 246 247 247 246 246 245 244 243 242 242 242 243 242 241 240 240 241 242 242 243 242 240 239 240 242
279 279 278 278 277 277 277 278 279 279 279 279 279 280 280 279 277 276 275 274 273 271 269 268 267 268 271 273 276 278 281 284 287 288 285 278 272 267 264 262 261 261 260 259 258 258 259 260 259 257 254 252 251 251 251 251 251 250 250 249 247 246 246 246 246 245 245 245 244 243 243 242 242 242 242 242 243 244 244 245 244 243 240 240 241
282 283 283 283 283 284 284 283 282 281 282 282 281 280 279 278 277 276 275 275 274 273 272 271 270 270 272 275 277 279 284 287 289 288 284 278 271 266 264 262 261 259 258 258 257 256 256 257 258 258 258 256 254 252 252 252 252 251 250 249 248 247 246 245 245 244 244 244 244 245 244 243 242 242 243 243 244 244 245 246 246 245 243 243 243
279 281 282 283 284 285 286 285 284 283 282 282 281 280 279 278 278 277 277 277 277 277 276 275 275 274 276 278 280 283 287 290 289 287 282 277 272 267 263 261 260 259 257 257 256 255 254 254 254 255 255 256 255 254 252 252 252 252 252 251 250 248 247 245 245 244 244 243 242 243 243 243 243 243 245 246 246 246 246 246 247 246 245 244 245
277 278 280 281 283 285 287 288 288 288 287 285 284 282 281 280 280 280 280 281 281 281 281 280 280 281 283 284 286 287 289 290 288 284 280 275 272 269 265 260 258 258 257 257 256 255 255 254 253 252 252 253 253 253 253 251 251 251 252 252 252 251 249 247 246 245 245 244 243 243 242 243 244 245 247 249 249 249 249 247 247 247 246 245 245
275 277 278 279 281 282 285 287 288 289 288 288 287 286 286 286 286 286 286 287 288 288 287 287 288 288 288 289 289 289 289 287 285 281 277 274 272 270 267 262 258 257 257 257 257 257 256 255 254 252 251 251 251 251 252 251 251 250 250 251 252 252 252 250 248 247 246 246 246 245 244 244 245 246 248 249 251 252 252 250 247 246 246 246 245
269 270 272 273 274 275 277 278 280 280 280 279 280 281 283 285 286 287 288 290 291 292 293 294 294 292 291 291 290 289 288 284 281 277 274 272 271 270 269 266 262 258 257 256 257 258 257 256 255 254 253 251 250 249 250 250 250 250 250 250 250 251 252 252 251 250 248 247 247 247 247 247 247 247 249 250 251 251 252 251 249 247 246 246 246
268 268 269 270 270 271 272 273 274 274 273 273 274 277 279 280 282 284 286 289 291 293 295 294 293 292 291 290 289 287 285 281 277 274 272 271 270 268 268 267 265 263 260 258 258 257 257 257 256 255 254 253 251 250 249 249 249 249 249 249 249 250 250 251 251 251 250 249 249 248 248 248 249 249 250 251 252 252 252 252 251 249 247 246 246
269 269 270 271 271 271 271 272 272 272 271 272 274 275 276 277 279 281 284 286 289 291 291 290 290 289 288 287 285 283 281 278 275 272 270 269 268 268 267 266 266 265 264 262 260 259 258 256 256 255 255 254 252 251 250 249 248 248 248 248 249 249 249 249 250 250 250 250 250 250 250 250 250 250 250 251 252 253 254 254 253 252 250 248 247
268 269 269 269 269 270 270 270 270 271 271 272 272 272 273 275 277 280 282 284 286 287 287 286 286 286 286 284 281 279 276 275 272 270 269 268 268 268 268 267 266 265 264 263 262 260 259 258 257 256 256 255 253 252 251 250 249 249 248 248 248 248 248 248 249 249 249 249 249 250 250 250 251 251 251 251 252 253 254 255 255 255 254 251 248
268 268 267 267 267 267 267 267 268 269 271 272 272 273 274 276 278 279 280 281 282 283 282 282 283 285 285 282 279 277 275 273 271 269 268 268 267 267 266 266 266 265 264 264 263 262 261 259 259 257 256 255 255 254 253 253 251 250 249 249 248 248 248 248 249 248 248 248 248 249 249 249 250 250 251 252 252 252 253 254 254 255 255 254 252
267 267 267 267 266 266 267 268 269 271 272 272 274 276 277 278 279 280 281 281 281 280 278 278 280 283 282 280 278 277 275 273 272 270 269 267 266 265 265 266 266 265 264 263 263 263 262 261 260 259 258 256 255 254 254 254 254 254 253 251 250 249 248 248 248 249 249 249 249 248 248 248 249 249 249 250 251 252 252 253 253 253 254 254 253
264 265 265 265 266 267 268 269 271 272 272 273 275 278 279 280 282 283 285 285 285 283 279 277 278 280 278 277 277 277 275 274 273 271 268 266 265 265 267 268 267 266 264 262 262 262 263 263 263 262 260 258 256 255 255 255 256 256 256 255 254 253 251 250 249 248 248 250 250 250 249 248 249 249 249 249 250 251 251 252 252 253 253 253 252
263 264 266 267 268 269 270 271 271 272 273 275 277 278 279 281 283 285 287 288 289 289 286 283 280 278 277 277 277 277 276 275 275 273 270 267 266 267 268 269 267 266 264 263 262 263 265 266 266 266 265 262 259 257 257 257 257 257 257 257 257 256 256 255 253 251 249 249 250 251 251 249 249 249 250 250 250 250 251 251 251 252 252 252 252
261 262 264 267 269 270 272 273 273 273 273 275 276 277 278 280 282 284 286 288 289 290 290 289 286 282 279 279 279 279 278 277 277 277 275 272 269 268 269 270 268 266 264 263 263 264 265 266 267 267 267 266 263 261 259 258 258 258 258 258 258 258 257 257 257 256 254 252 251 251 252 251 250 250 251 250 250 251 251 252 252 252 252 252 253
260 260 260 262 264 266 268 270 272 273 273 273 274 275 276 278 280 282 284 285 286 287 288 289 290 288 284 281 280 280 279 278 278 278 277 275 273 271 272 272 271 269 267 265 264 265 265 266 265 265 265 266 265 264 262 261 260 259 259 259 259 258 258 258 258 257 257 256 254 254 254 253 251 251 252 251 251 251 252 252 253 253 253 254 254
260 260 260 261 262 263 264 265 267 269 271 273 274 275 275 276 277 278 280 282 283 284 285 287 288 289 289 287 284 282 280 278 278 277 277 276 276 275 274 274 274 272 271 270 269 268 268 268 268 267 266 266 265 264 263 263 263 262 262 262 261 260 260 259 259 258 258 257 256 256 256 256 254 252 252 253 252 251 251 252 252 252 253 254 254
260 261 262 262 262 263 264 265 265 267 268 270 272 273 274 275 276 277 278 279 280 281 281 282 284 286 288 289 288 287 283 280 278 277 276 276 276 276 275 274 274 273 272 272 271 272 272 273 273 273 272 271 270 268 265 264 263 263 263 264 264 264 263 262 261 260 259 258 257 257 256 257 256 254 254 254 254 253 252 252 252 252 252 252 253
259 261 262 263 263 263 264 264 266 267 268 269 270 270 271 272 273 275 276 277 277 277 278 278 279 280 282 285 286 287 287 284 282 279 278 277 276 275 274 274 273 272 272 272 272 273 274 275 276 276 276 275 275 274 272 270 268 267 266 266 265 264 264 264 264 263 261 260 258 257 256 256 257 256 255 254 255 254 254 253 252 252 252 252 252
258 259 260 260 261 262 264 266 266 267 268 269 269 269 269 269 270 271 272 272 273 273 273 274 275 276 277 278 280 282 283 284 284 283 282 280 279 277 276 275 275 275 275 275 276 277 277 278 278 278 278 277 277 277 276 276 275 274 273 271 269 267 265 264 263 263 263 263 261 259 256 255 256 256 256 255 255 255 255 254 253 253 252 252 252
256 258 258 258 258 260 263 265 266 266 268 268 268 268 268 268 268 268 269 270 270 270 271 272 273 273 274 275 276 277 278 280 281 282 282 282 281 280 279 278 278 278 278 278 279 279 279 280 280 280 280 280 279 279 279 279 278 277 276 275 273 271 269 266 264 262 262 262 262 262 260 257 256 255 255 255 255 255 255 255 255 254 253 253 253
253 255 258 259 260 260 260 261 262 264 265 266 267 267 267 267 267 268 268 269 269 270 271 272 273 273 274 274 275 276 276 277 278 279 280 281 281 281 280 280 280 280 280 280 279 279 280 280 281 282 282 282 282 282 281 281 280 279 278 276 275 273 272 270 268 265 263 261 261 261 261 260 259 257 255 254 254 255 256 256 256 256 255 254 254
Height
10711 10711 10711 10710 10710 10711 10711 10712 10712 10710 10709 10707 10706 10705 10704 10703 10702 10702 10702 10701 10701 10700 10699 10699 10699 10699 10699 10700 10701 10702 10702 10704 10704 10706 10708 10710 10711 10712 10713 10714 10715 10715 10716 10716 10717 10718 10719 10720 10721 10722 10722 10723 10723 10723 10724 10724 10724 10725 10726 10726 10728 10729 10730 10732 10734 10735 10736 10737 10738 10740 10741 10742 10743 10744 10744 10745 10746 10747 10749 10750 10752 10753 10754 10755 10756
10707 10707 10706 10705 10705 10707 10708 10709 10708 10706 10704 10703 10702 10700 10699 10699 10699 10698 10698 10697 10696 10695 10694 10694 10694 10693 10694 10694 10695 10696 10697 10698 10699 10701 10704 10705 10707 10708 10709 10710 10711 10712 10712 10713 10713 10714 10715 10716 10717 10718 10719 10719 10719 10719 10720 10720 10720 10720 10721 10722 10723 10725 10726 10728 10730 10731 10732 10733 10734 10736 10737 10738 10740 10741 10741 10743 10744 10745 10746 10747 10748 10749 10751 10752 10753
10702 10702 10701 10700 10702 10705 10705 10704 10702 10701 10700 10699 10698 10697 10696 10696 10695 10695 10694 10693 10691 10690 10689 10688 10688 10688 10688 10689 10690 10691 10692 10693 10695 10697 10699 10701 10702 10704 10705 10706 10707 10708 10709 10709 10709 10710 10711 10712 10713 10714 10714 10714 10715 10715 10715 10715 10716 10716 10717 10718 10719 10720 10722 10723 10725 10727 10728 10729 10730 10732 10734 10735 10736 10737 10738 10740 10741 10742 10743 10744 10745 10746 10747 10749 10750
10697 10698 10698 10697 10699 10701 10701 10700 10698 10697 10697 10696 10695 10694 10694 10693 10693 10692 10690 10689 10687 10686 10684 10684 10683 10683 10684 10685 10686 10687 10688 10689 10691 10693 10695 10696 10697 10699 10700 10701 10703 10704 10705 10705 10706 10707 10707 10708 10709 10710 10710 10710 10710 10710 10711 10711 10712 10712 10712 10713 10714 10716 10717 10719 10721 10723 10724 10725 10726 10728 10730 10732 10733 10734 10735 10737 10738 10739 10740 10741 10742 10743 10744 10745 10746
10693 10695 10696 10695 10695 10695 10696 10695 10695 10694 10693 10692 10692 10691 10691 10690 10689 10688 10686 10684 10683 10682 10680 10679 10679 10680 10680 10681 10682 10683 10684 10686 10687 10689 10691 10692 10693 10694 10695 10697 10698 10699 10700 10701 10702 10703 10703 10704 10705 10706 10706 10705 10705 10706 10706 10707 10707 10708 10708 10709 10710 10711 10713 10715 10717 10719 10720 10722 10722 10724 10727 10728 10730 10731 10732 10734 10735 10736 10737 10738 10739 10740 10741 10742 10743
10689 10691 10692 10693 10692 10691 10691 10691 10691 10690 10690 10689 10688 10688 10688 10686 10684 10684 10683 10680 10679 10678 10677 10676 10675 10676 10676 10677 10678 10679 10681 10682 10684 10686 10687 10688 10689 10689 10691 10692 10693 10694 10695 10696 10698 10699 10700 10700 10701 10702 10702 10701 10701 10701 10701 10702 10703 10704 10704 10705 10706 10707 10708 10710 10713 10715 10716 10718 10719 10721 10723 10725 10726 10727 10729 10730 10731 10732 10734 10735 10736 10737 10738 10739 10740
10685 10686 10687 10689 10689 10689 10688 10688 10687 10687 10686 10686 10686 10686 10686 10684 10680 10678 10678 10676 10675 10674 10673 10672 10672 10672 10672 10673 10674 10676 10677 10679 10680 10682 10683 10684 10685 10685 10687 10687 10687 10689 10691 10692 10693 10695 10696 10697 10697 10698 10697 10696 10696 10696 10697 10698 10699 10699 10700 10701 10701 10702 10704 10706 10708 10710 10712 10714 10715 10717 10719 10721 10723 10724 10725 10727 10728 10729 10730 10731 10732 10733 10734 10736 10737
10682 10682 10683 10684 10685 10685 10685 10685 10684 10683 10683 10683 10683 10684 10685 10684 10678 10674 10672 10671 10671 10671 10669 10669 10669 10669 10669 10669 10670 10671 10673 10674 10676 10678 10679 10679 10680 10681 10682 10682 10682 10684 10686 10687 10689 10690 10691 10692 10693 10693 10693 10692 10692 10692 10693 10693 10695 10695 10696 10697 10697 10698 10700 10701 10704 10706 10708 10709 10710 10713 10715 10717 10719 10721 10722 10723 10724 10725 10726 10728 10729 10730 10731 10733 10734
10679 10679 10679 10680 10681 10681 10680 10681 10680 10680 10679 10679 10680 10680 10682 10683 10679 10671 10667 10668 10668 10667 10666 10665 10665 10666 10665 10665 10666 10667 10668 10668 10670 10672 10674 10675 10676 10676 10678 10678 10678 10679 10681 10683 10685 10686 10686 10687 10688 10688 10688 10688 10688 10688 10688 10689 10690 10691 10691 10692 10693 10693 10695 10696 10699 10701 10703 10704 10706 10709 10711 10713 10714 10716 10718 10719 10720 10721 10723 10725 10726 10727 10728 10729 10730
10676 10675 10675 10675 10677 10676 10676 10676 10676 10676 10676 10676 10676 10677 10678 10679 10677 10668 10662 10664 10665 10664 10663 10662 10662 10662 10662 10662 10662 10663 10663 10663 10664 10666 10668 10670 10671 10671 10671 10672 10673 10675 10676 10677 10679 10681 10682 10683 10684 10684 10683 10683 10683 10684 10684 10684 10685 10685 10686 10686 10687 10688 10689 10691 10694 10696 10698 10700 10703 10705 10707 10709 10711 10712 10713 10715 10716 10717 10719 10721 10722 10724 10725 10726 10727
10672 10672 10672 10672 10672 10672 10672 10672 10672 10672 10672 10672 10672 10673 10673 10674 10674 10667 10658 10658 10660 10659 10659 10658 10658 10658 10657 10658 10658 10659 10659 10659 10659 10661 10663 10664 10665 10665 10665 10666 10668 10670 10671 10672 10673 10676 10678 10679 10679 10678 10678 10679 10679 10679 10680 10680 10680 10680 10681 10681 10682 10683 10684 10687 10689 10692 10694 10696 10699 10702 10704 10705 10707 10708 10709 10711 10712 10714 10716 10717 10719 10721 10722 10723 10723
10668 10669 10669 10668 10668 10668 10668 10668 10668 10668 10668 10668 10668 10668 10669 10669 10669 10665 10658 10656 10657 10656 10655 10654 10653 10652 10652 10652 10653 10654 10655 10655 10655 10657 10658 10659 10659 10660 10661 10662 10663 10665 10666 10667 10669 10671 10673 10673 10673 10673 10674 10674 10674 10675 10675 10675 10675 10675 10676 10677 10678 10679 10681 10684 10686 10688 10690 10693 10695 10698 10700 10702 10703 10704 10705 10707 10708 10710 10711 10713 10715 10717 10718 10719 10720
10663 10664 10664 10664 10664 10664 10664 10664 10664 10664 10664 10664 10664 10664 10664 10663 10662 10660 10656 10655 10655 10654 10653 10651 10649 10648 10647 10646 10646 10648 10649 10650 10650 10652 10653 10654 10654 10655 10656 10658 10659 10660 10661 10662 10664 10665 10667 10668 10668 10669 10669 10670 10670 10670 10671 10671 10671 10671 10671 10673 10674 10676 10678 10680 10680 10682 10685 10688 10691 10694 10696 10697 10698 10700 10701 10703 10704 10705 10707 10709 10711 10713 10715 10716 10717
10659 10659 10660 10660 10660 10660 10660 10660 10660 10660 10660 10661 10661 10660 10659 10658 10657 10654 10652 10651 10650 10649 10649 10649 10647 10645 10643 10642 10642 10642 10643 10644 10645 10646 10648 10649 10650 10650 10652 10653 10654 10654 10655 10657 10659 10660 10661 10663 10663 10664 10664 10665 10666 10667 10667 10667 10667 10667 10668 10669 10670 10672 10674 10674 10675 10677 10681 10684 10687 10689 10690 10692 10694 10695 10697 10698 10699 10701 10703 10705 10708 10709 10711 10712 10714
10654 10655 10655 10655 10655 10655 10655 10655 10655 10656 10656 10657 10657 10656 10655 10653 10652 10650 10648 10647 10645 10644 10644 10644 10643 10642 10640 10639 10638 10638 10638 10639 10639 10640 10642 10643 10644 10645 10646 10647 10648 10649 10649 10650 10653 10655 10656 10658 10659 10659 10660 10661 10662 10663 10663 10663 10664 10664 10664 10665 10666 10667 10669 10670 10672 10674 10677 10680 10683 10685 10687 10689 10690 10691 10693 10694 10696 10698 10701 10703 10705 10707 10708 10710 10710
10650 10651 10651 10651 10651 10651 10651 10651 10651 10651 10652 10652 10652 10651 10650 10649 10648 10647 10645 10644 10642 10641 10640 10639 10639 10638 10636 10635 10634 10634 10634 10634 10634 10635 10636 10638 10638 10640 10641 10641 10643 10644 10644 10644 10647 10649 10651 10652 10654 10655 10655 10656 10657 10658 10659 10659 10659 10660 10661 10662 10662 10663 10665 10667 10668 10670 10673 10676 10678 10681 10683 10685 10686 10688 10690 10692 10694 10697 10699 10701 10702 10704 10705 10706 10707
10646 10646 10646 10646 10646 10646 10646 10646 10647 10647 10648 10648 10647 10647 10646 10645 10644 10643 10642 10641 10639 10638 10637 10636 10636 10635 10633 10631 10630 10630 10630 10630 10629 10630 10631 10632 10633 10634 10636 10637 10637 10638 10639 10640 10641 10643 10645 10647 10648 10649 10651 10651 10652 10653 10654 10654 10655 10656 10657 10658 10659 10660 10662 10663 10665 10667 10669 10672 10674 10677 10679 10681 10683 10685 10687 10690 10692 10694 10695 10696 10698 10700 10701 10702 10703
10640 10641 10641 10642 10642 10642 10642 10642 10642 10643 10644 10644 10643 10643 10642 10641 10640 10639 10637 10636 10636 10635 10634 10634 10633 10632 10631 10628 10627 10626 10626 10626 10626 10626 10627 10627 10627 10629 10631 10632 10632 10633 10634 10635 10636 10638 10639 10641 10642 10644 10646 10647 10648 10649 10649 10650 10651 10652 10654 10654 10656 10657 10659 10661 10663 10664 10666 10668 10670 10673 10676 10678 10680 10683 10685 10687 10688 10689 10690 10692 10694 10696 10698 10699 10699
10634 10635 10636 10637 10637 10638 10638 10638 10638 10639 10639 10639 10638 10638 10637 10637 10636 10634 10633 10632 10631 10631 10630 10629 10629 10629 10627 10625 10624 10623 10622 10621 10621 10621 10622 10622 10622 10623 10625 10626 10628 10629 10629 10631 10632 10633 10635 10636 10637 10639 10641 10642 10643 10644 10645 10646 10647 10649 10650 10651 10653 10654 10655 10657 10659 10661 10662 10664 10666 10669 10672 10674 10676 10679 10681 10683 10684 10685 10686 10689 10692 10694 10695 10695 10696
10629 10630 10631 10632 10633 10634 10634 10635 10635 10635 10635 10634 10634 10633 10633 10632 10631 10630 10629 10628 10627 10626 10626 10625 10625 10625 10624 10622 10621 10620 10619 10618 10617 10617 10618 10617 10617 10618 10620 10621 10623 10624 10625 10626 10627 10629 10630 10631 10632 10634 10635 10637 10639 10640 10641 10642 10644 10645 10646 10648 10649 10650 10651 10653 10655 10657 10658 10660 10662 10664 10667 10669 10672 10675 10677 10678 10680 10681 10683 10686 10688 10689 10690 10691 10692
10624 10625 10626 10627 10628 10629 10630 10630 10630 10630 10630 10630 10629 10629 10628 10628 10627 10626 10625 10624 10623 10622 10621 10621 10620 10620 10620 10619 10618 10617 10616 10616 10615 10615 10614 10614 10613 10614 10615 10617 10618 10619 10620 10621 10623 10624 10625 10626 10627 10629 10630 10632 10634 10635 10637 10638 10640 10641 10643 10644 10645 10646 10647 10648 10650 10652 10653 10655 10657 10660 10663 10665 10667 10670 10672 10674 10676 10678 10680 10682 10683 10685 10686 10687 10687
10620 10621 10621 10622 10624 10624 10625 10625 10625 10625 10625 10624 10624 10624 10624 10623 10622 10621 10620 10619 10619 10618 10618 10617 10617 10616 10616 10615 10614 10614 10613 10613 10613 10612 10612 10611 10610 10610 10611 10613 10614 10615 10615 10616 10617 10618 10620 10621 10622 10623 10625 10627 10628 10630 10632 10634 10636 10638 10639 10640 10641 10642 10643 10644 10646 10647 10649 10651 10652 10655 10658 10661 10663 10665 10668 10670 10672 10674 10676 10677 10679 10681 10682 10682 10682
10615 10616 10617 10618 10619 10620 10620 10620 10620 10620 10620 10619 10619 10619 10619 10619 10618 10617 10616 10616 10615 10615 10614 10614 10613 10612 10612 10612 10611 10611 10610 10610 10610 10610 10610 10609 10608 10607 10607 10608 10610 10611 10611 10611 10612 10613 10614 10616 10617 10618 10620 10622 10623 10625 10627 10629 10631 10633 10635 10636 10638 10639 10639 10640 10641 10643 10644 10646 10648 10650 10653 10655 10658 10661 10663 10666 10668 10670 10672 10673 10675 10677 10677 10677 10677
10610 10611 10612 10613 10614 10615 10615 10615 10615 10615 10615 10615 10615 10615 10615 10615 10614 10614 10613 10612 10612 10611 10610 10610 10609 10609 10608 10608 10608 10607 10607 10607 10607 10607 10607 10607 10606 10605 10605 10605 10606 10607 10607 10608 10608 10608 10610 10611 10612 10614 10615 10617 10618 10620 10622 10624 10626 10628 10630 10632 10633 10634 10635 10636 10636 10638 10639 10641 10643 10646 10647 10650 10653 10655 10658 10660 10662 10665 10667 10668 10669 10670 10670 10669 10670
10604 10606 10607 10608 10609 10609 10610 10610 10610 10611 10611 10611 10611 10610 10610 10610 10609 10609 10609 10608 10607 10607 10606 10606 10605 10605 10604 10604 10604 10604 10604 10604 10604 10604 10604 10604 10603 10603 10603 10603 10602 10603 10603 10604 10604 10605 10606 10607 10608 10609 10611 10612 10614 10615 10617 10619 10621 10622 10624 10626 10628 10629 10630 10631 10632 10633 10634 10636 10638 10640 10642 10644 10647 10649 10652 10654 10656 10659 10661 10662 10664 10664 10663 10663 10665
10598 10600 10601 10602 10603 10604 10604 10605 10605 10606 10606 10606 10605 10605 10604 10604 10604 10604 10604 10603 10603 10602 10602 10602 10601 10601 10601 10600 10600 10600 10600 10600 10600 10601 10601 10601 10600 10600 10601 10600 10600 10600 10600 10600 10601 10601 10602 10603 10604 10605 10607 10608 10609 10611 10613 10614 10616 10617 10619 10621 10622 10624 10625 10626 10627 10628 10629 10631 10633 10634 10636 10638 10640 10643 10646 10648 10650 10653 10655 10656 10658 10658 10658 10659 10661
10592 10594 10595 10596 10597 10597 10598 10599 10600 10600 10600 10600 10600 10599 10599 10599 10599 10599 10599 10598 10598 10598 10598 10597 10597 10597 10597 10597 10596 10596 10597 10597 10596 10597 10597 10597 10597 10597 10597 10597 10597 10597 10597 10597 10597 10597 10598 10599 10600 10601 10602 10603 10605 10607 10608 10610 10612 10613 10614 10616 10617 10618 10620 10621 10622 10623 10624 10625 10627 10629 10630 10632 10634 10637 10639 10641 10644 10646 10648 10650 10652 10652 10653 10654 10655
10586 10588 10589 10590 10591 10592 10593 10594 10594 10594 10594 10594 10594 10594 10594 10594 10594 10594 10594 10594 10594 10593 10593 10593 10593 10593 10593 10593 10592 10593 10593 10593 10592 10592 10593 10593 10593 10593 10593 10594 10594 10594 10594 10594 10594 10594 10594 10595 10596 10596 10597 10598 10600 10602 10603 10605 10607 10608 10610 10611 10612 10613 10615 10616 10617 10618 10619 10620 10621 10623 10624 10626 10629 10631 10633 10635 10637 10639 10641 10643 10645 10646 10648 10648 10649
10580 10582 10583 10584 10586 10587 10588 10588 10589 10588 10588 10588 10588 10588 10588 10589 10589 10589 10589 10589 10589 10589 10589 10588 10588 10588 10588 10588 10588 10588 10588 10588 10588 10588 10588 10588 10588 10588 10589 10589 10590 10590 10590 10590 10590 10590 10590 10591 10591 10591 10592 10593 10594 10596 10597 10599 10601 10603 10604 10605 10606 10608 10609 10611 10612 10613 10614 10615 10616 10617 10619 10621 10623 10625 10627 10629 10631 10633 10635 10636 10638 10640 10641 10642 10642
10573 10576 10577 10579 10581 10582 10583 10582 10582 10582 10582 10582 10582 10582 10583 10583 10583 10584 10584 10584 10584 10584 10584 10584 10583 10583 10583 10583 10583 10583 10583 10583 10583 10582 10582 10582 10583 10583 10584 10584 10585 10585 10585 10585 10585 10585 10585 10586 10586 10586 10586 10587 10588 10589 10591 10593 10595 10596 10597 10599 10600 10602 10603 10605 10607 10608 10609 10610 10611 10612 10614 10615 10617 10619 10621 10622 10624 10626 10628 10630 10631 10633 10635 10636 10636
10562 10565 10567 10570 10572 10575 10576 10575 10575 10575 10575 10575 10575 10576 10576 10576 10577 10577 10578 10578 10578 10578 10578 10578 10578 10577 10577 10577 10577 10577 10577 10577 10577 10577 10576 10577 10577 10578 10578 10579 10579 10580 10580 10580 10580 10580 10580 10581 10581 10581 10582 10582 10582 10583 10584 10586 10587 10589 10590 10592 10593 10595 10596 10598 10600 10602 10604 10605 10606 10607 10609 10610 10612 10613 10615 10616 10618 10619 10621 10623 10624 10626 10628 10629 10630
10552 10554 10555 10557 10559 10562 10564 10565 10566 10566 10566 10567 10567 10568 10569 10569 10570 10571 10571 10572 10572 10572 10572 10572 10571 10571 10571 10571 10571 10571 10570 10570 10570 10570 10570 10570 10571 10571 10572 10573 10573 10574 10575 10575 10575 10575 10575 10575 10576 10576 10577 10577 10578 10578 10579 10580 10581 10582 10584 10585 10586 10588 10589 10591 10593 10595 10597 10598 10600 10601 10603 10604 10606 10607 10609 10610 10611 10613 10614 10615 10617 10619 10620 10621 10623
10546 10546 10547 10547 10548 10550 10553 10555 10557 10558 10558 10559 10560 10561 10561 10562 10563 10564 10565 10565 10565 10565 10565 10564 10564 10564 10564 10564 10564 10564 10563 10563 10563 10563 10563 10564 10564 10564 10565 10566 10567 10567 10568 10568 10569 10569 10569 10569 10570 10570 10571 10572 10572 10573 10574 10574 10575 10576 10577 10578 10579 10581 10582 10584 10585 10587 10589 10591 10592 10594 10595 10597 10599 10600 10602 10603 10604 10606 10607 10608 10610 10611 10613 10614 10615
10540 10540 10540 10540 10540 10541 10542 10544 10545 10546 10548 10549 10550 10552 10553 10554 10555 10556 10556 10557 10558 10558 10558 10557 10557 10557 10557 10556 10556 10556 10556 10556 10556 10556 10556 10557 10557 10557 10558 10559 10560 10561 10561 10561 10561 10562 10562 10563 10563 10564 10565 10565 10566 10566 10567 10568 10569 10570 10571 10572 10573 10574 10576 10577 10579 10580 10582 10583 10585 10586 10588 10589 10591 10592 10594 10595 10596 10598 10599 10601 10602 10604 10605 10607 10608
10535 10534 10534 10534 10535 10535 10535 10535 10536 10536 10537 10537 10539 10540 10541 10542 10543 10544 10546 10547 10549 10550 10550 10550 10550 10550 10549 10549 10548 10548 10548 10548 10548 10548 10549 10549 10550 10550 10550 10551 10552 10553 10554 10554 10555 10555 10555 10556 10557 10557 10558 10558 10559 10559 10560 10561 10561 10563 10564 10565 10566 10567 10569 10570 10572 10573 10574 10576 10578 10579 10581 10582 10583 10585 10586 10587 10588 10590 10591 10593 10594 10596 10597 10599 10600
10532 10530 10529 10530 10530 10531 10532 10532 10532 10532 10532 10532 10532 10532 10533 10533 10533 10535 10536 10538 10541 10542 10542 10543 10542 10542 10541 10541 10541 10541 10541 10541 10541 10541 10541 10542 10543 10543 10544 10544 10545 10546 10547 10548 10548 10548 10549 10549 10550 10550 10551 10551 10552 10552 10552 10553 10554 10555 10557 10558 10559 10560 10561 10563 10564 10566 10567 10568 10570 10571 10573 10574 10576 10577 10578 10579 10580 10581 10583 10584 10586 10587 10589 10590 10592
10527 10526 10525 10525 10525 10526 10528 10528 10528 10527 10528 10527 10527 10527 10527 10527 10527 10528 10530 10532 10534 10535 10536 10535 10535 10534 10534 10533 10534 10534 10534 10534 10533 10534 10534 10535 10536 10536 10537 10537 10538 10539 10539 10540 10541 10542 10542 10542 10543 10543 10543 10544 10544 10545 10545 10546 10547 10548 10549 10550 10551 10553 10554 10555 10556 10558 10559 10560 10561 10563 10565 10566 10568 10569 10570 10571 10572 10573 10574 10575 10577 10578 10580 10582 10583
10520 10520 10520 10519 10518 10519 10521 10522 10521 10521 10521 10521 10521 10521 10520 10520 10521 10522 10523 10526 10528 10530 10530 10529 10528 10528 10527 10527 10527 10527 10527 10526 10526 10527 10527 10528 10529 10529 10530 10530 10531 10531 10532 10533 10533 10534 10535 10535 10536 10536 10536 10536 10536 10536 10537 10538 10539 10540 10541 10542 10543 10544 10545 10546 10547 10549 10550 10551 10552 10554 10556 10557 10559 10561 10562 10563 10563 10564 10565 10566 10568 10569 10571 10573 10575
10512 10512 10513 10512 10511 10511 10512 10514 10514 10514 10514 10514 10514 10513 10512 10513 10515 10516 10517 10520 10523 10524 10524 10522 10521 10521 10520 10520 10520 10520 10520 10520 10520 10520 10520 10521 10521 10522 10523 10523 10523 10524 10524 10525 10525 10526 10526 10528 10528 10529 10528 10528 10528 10528 10529 10530 10531 10532 10533 10535 10536 10537 10537 10538 10539 10540 10541 10542 10543 10545 10547 10549 10550 10552 10553 10554 10555 10556 10557 10557 10558 10560 10562 10564 10566
10504 10504 10504 10504 10504 10503 10504 10506 10506 10507 10507 10506 10505 10505 10505 10505 10507 10509 10510 10513 10517 10519 10518 10516 10515 10514 10513 10513 10513 10513 10513 10513 10513 10514 10514 10514 10515 10515 10516 10516 10516 10517 10517 10517 10517 10518 10518 10520 10520 10520 10519 10519 10520 10521 10522 10522 10522 10523 10524 10526 10527 10528 10529 10530 10531 10531 10532 10532 10533 10534 10537 10539 10540 10542 10543 10544 10545 10546 10547 10548 10549 10550 10552 10554 10556
10495 10494 10494 10494 10493 10493 10495 10497 10498 10500 10500 10497 10495 10497 10496 10495 10495 10498 10500 10502 10507 10511 10512 10511 10510 10508 10507 10507 10506 10507 10507 10507 10507 10507 10507 10508 10508 10509 10509 10509 10509 10510 10510 10510 10510 10510 10511 10512 10512 10511 10510 10510 10511 10512 10514 10514 10515 10516 10516 10517 10518 10519 10520 10521 10522 10523 10523 10524 10524 10525 10527 10529 10530 10531 10532 10534 10534 10535 10536 10538 10539 10540 10542 10544 10546
10486 10485 10485 10484 10483 10484 10487 10489 10490 10491 10492 10490 10489 10489 10488 10485 10485 10486 10488 10490 10493 10499 10503 10504 10504 10503 10502 10502 10501 10501 10501 10501 10501 10501 10501 10501 10501 10502 10503 10503 10502 10502 10502 10502 10502 10503 10503 10504 10504 10503 10501 10501 10502 10504 10505 10506 10506 10507 10508 10509 10510 10510 10511 10512 10512 10514 10515 10515 10515 10516 10518 10520 10521 10522 10522 10524 10524 10525 10526 10527 10528 10530 10531 10533 10535
10477 10476 10476 10475 10475 10476 10478 10480 10482 10484 10484 10483 10483 10482 10481 10479 10478 10478 10479 10480 10480 10483 10488 10492 10496 10496 10496 10496 10495 10495 10495 10495 10495 10495 10495 10495 10495 10495 10496 10496 10495 10495 10495 10495 10494 10494 10495 10495 10496 10495 10492 10491 10493 10496 10497 10497 10497 10498 10499 10500 10501 10502 10502 10503 10503 10504 10506 10507 10507 10506 10508 10511 10513 10512 10512 10514 10515 10515 10515 10516 10517 10519 10521 10522 10524
10470 10470 10469 10467 10467 10469 10470 10471 10473 10475 10477 10477 10476 10476 10475 10474 10473 10472 10473 10473 10473 10473 10474 10477 10483 10487 10488 10488 10488 10488 10488 10488 10488 10488 10488 10489 10488 10488 10488 10488 10488 10488 10487 10487 10486 10486 10486 10487 10487 10487 10484 10482 10484 10487 10487 10487 10488 10489 10489 10490 10491 10492 10493 10493 10493 10494 10496 10498 10499 10498 10497 10499 10503 10503 10502 10504 10505 10505 10505 10506 10508 10509 10511 10512 10513
10464 10463 10462 10461 10462 10462 10463 10464 10464 10466 10468 10470 10471 10470 10470 10469 10468 10467 10467 10466 10467 10467 10466 10466 10468 10473 10477 10479 10480 10480 10480 10480 10480 10480 10480 10481 10481 10481 10481 10480 10480 10480 10479 10479 10478 10478 10478 10478 10478 10478 10476 10474 10475 10476 10477 10478 10479 10479 10479 10479 10480 10481 10482 10482 10483 10483 10485 10487 10488 10489 10487 10488 10492 10494 10492 10493 10495 10495 10495 10496 10498 10500 10501 10502 10503
10456 10456 10456 10456 10456 10456 10456 10458 10458 10459 10459 10461 10463 10463 10463 10463 10463 10463 10462 10462 10461 10461 10460 10459 10458 10459 10463 10466 10469 10470 10471 10471 10471 10471 10471 10471 10471 10472 10472 10472 10471 10471 10471 10470 10470 10469 10469 10468 10469 10469 10468 10466 10466 10467 10468 10469 10468 10469 10469 10469 10470 10471 10471 10472 10472 10472 10473 10475 10476 10478 10477 10476 10479 10483 10482 10481 10483 10485 10485 10485 10488 10490 10492 10492 10493
10449 10448 10448 10448 10448 10448 10448 10449 10450 10452 10453 10454 10455 10456 10456 10456 10456 10456 10456 10456 10456 10455 10455 10455 10454 10452 10452 10453 10455 10458 10459 10460 10460 10460 10460 10460 10461 10462 10462 10462 10462 10462 10462 10461 10460 10460 10459 10459 10459 10459 10459 10458 10457 10458 10459 10459 10459 10459 10460 10460 10460 10460 10461 10461 10460 10460 10461 10462 10462 10464 10466 10464 10464 10470 10472 10469 10470 10473 10474 10474 10476 10479 10481 10482 10483
10442 10441 10440 10439 10439 10439 10440 10441 10442 10444 10445 10445 10447 10449 10449 10449 10449 10448 10448 10448 10448 10448 10448 10448 10448 10448 10447 10446 10446 10446 10447 10448 10448 10449 10449 10449 10450 10451 10451 10452 10452 10452 10452 10452 10451 10451 10450 10450 10450 10449 10450 10449 10448 10449 10449 10449 10449 10450 10450 10450 10450 10450 10450 10450 10448 10447 10447 10448 10447 10449 10452 10453 10452 10455 10459 10458 10457 10458 10459 10461 10464 10467 10468 10470 10472
10435 10433 10430 10429 10429 10430 10431 10433 10435 10435 10435 10436 10438 10440 10441 10441 10442 10442 10442 10442 10441 10441 10441 10440 10440 10441 10441 10440 10439 10438 10438 10437 10437 10437 10437 10438 10439 10440 10440 10441 10442 10442 10442 10442 10441 10441 10440 10440 10440 10440 10440 10439 10439 10439 10439 10439 10439 10439 10438 10438 10438 10437 10438 10438 10437 10435 10434 10433 10432 10432 10437 10441 10441 10441 10443 10444 10444 10444 10445 10446 10450 10453 10455 10457 10460
10426 10423 10419 10417 10420 10424 10425 10425 10425 10426 10426 10427 10429 10430 10431 10433 10434 10434 10434 10434 10434 10433 10433 10433 10432 10432 10432 10432 10431 10431 10430 10429 10428 10427 10427 10427 10428 10428 10429 10430 10430 10430 10430 10430 10430 10430 10430 10429 10429 10429 10429 10429 10428 10429 10429 10428 10428 10427 10426 10426 10425 10424 10424 10424 10424 10423 10421 10420 10417 10416 10420 10427 10428 10427 10428 10430 10431 10431 10431 10432 10435 10438 10441 10444 10445
10416 10413 10409 10407 10411 10418 10419 10415 10415 10418 10418 10418 10419 10421 10422 10424 10425 10425 10425 10425 10425 10425 10424 10424 10424 10423 10423 10422 10422 10421 10420 10420 10419 10419 10418 10418 10418 10418 10418 10418 10418 10419 10419 10418 10419 10419 10418 10418 10418 10417 10417 10417 10417 10417 10417 10416 10416 10415 10414 10413 10412 10411 10411 10410 10409 10409 10408 10407 10403 10401 10405 10410 10412 10412 10413 10416 10418 10418 10417 10418 10420 10422 10425 10428 10430